[[{"header":{"parameterUnit":"m.s-1","parameterCategory":1,"la1":30.2991,"la2":30.254,"lo1":-89.0895,"lo2":-89.0444,"dy":0.0017,"dx":0.0017,"nx":28,"ny":28,"refTime":"2025-07-23T03:00:00:Z","depth":0,"parameterNumber":2,"parameterNumberName":"U-component_of_WINDS"},"data":[0,0,0,0,0,0,0,0,0,0,0,0,0,0,0,0,0,0,0,0,0,0,0,0,0,0,0,0,0,0,0,0,0,0,0,0,0,0,0,0,0,0,0,0,0,0,0,0,0,0,0,0,0,0,0,0,0,0,-5.8218,-5.8213,0,-5.7771,-5.7766,-5.7761,-5.7433,-5.743,-5.7427,-5.7425,-5.6932,-5.6922,-5.6911,0,0,0,0,0,0,0,0,0,0,0,0,0,-5.8759,-5.8751,-5.8218,-5.8213,-5.8207,-5.7772,-5.7766,-5.7759,-5.7433,-5.743,-5.7427,-5.7424,-5.6935,-5.6923,-5.691,0,0,0,0,0,0,0,0,0,0,0,0,0,-5.8439,-5.8748,-5.8219,-5.7993,-5.7968,-5.7773,-5.7765,-5.7758,-5.7434,-5.743,-5.7426,-5.7422,-5.694,-5.6924,-5.6908,-5.6892,0,0,-5.686,-5.6853,0,0,0,0,0,0,0,0,-5.8457,-5.8419,-5.8032,-5.8008,-5.798,-5.7654,-5.7775,-5.7466,-5.7435,-5.7636,-5.7425,-5.742,-5.7173,-5.7138,-5.7062,-5.6869,-5.6848,-5.6858,-5.6849,-5.6842,-5.6838,0,0,0,0,0,0,0,-5.848,-5.8436,-5.804,-5.8026,-5.7995,-5.7903,-5.7854,-5.7715,-5.7431,-5.7618,-5.7593,-5.7547,-5.7158,-5.7078,-5.7048,-5.684,-5.6859,-5.6845,-5.6835,-5.6829,-5.6606,-5.6609,0,0,0,0,0,0,-5.8542,-5.8457,-5.8054,-5.8027,-5.8215,-5.7897,-5.7841,-5.7762,-5.7433,-5.7379,-5.7551,-5.7533,-5.7107,-5.7067,-5.7029,-5.6984,-5.6842,-5.6827,-5.6818,-5.6602,-5.6607,-5.6611,0,0,0,0,0,0,-5.8555,-5.8509,-5.8072,-5.8235,-5.8173,-5.7893,-5.7806,-5.7756,-5.7675,-5.7382,-5.7326,-5.7523,-5.7102,-5.7051,-5.693,-5.6962,-5.682,-5.6806,-5.6598,-5.6604,-5.6609,-5.6898,0,0,0,0,0,0,-5.8572,-5.8516,-5.8514,-5.8238,-5.8166,-5.7991,-5.7809,-5.775,-5.7653,-5.7626,-5.7341,-5.729,-5.7095,-5.6956,-5.6915,-5.6938,-5.6793,-5.6594,-5.6601,-5.6607,-5.6884,-5.6912,-5.6937,0,0,0,0,0,-5.8592,-5.8606,-5.8516,-5.8469,-5.8159,-5.7994,-5.7951,-5.7737,-5.7658,-5.7647,-5.7459,-5.7299,-5.6969,-5.6946,-5.6897,-5.6916,-5.659,-5.6599,-5.6607,-5.6872,-5.6907,-5.6936,0,0,0,0,0,0,-5.8879,-5.8565,-5.8461,-5.8389,-5.8223,-5.794,-5.792,-5.7781,-5.7624,-5.7604,-5.7334,-5.7272,-5.7178,-5.7034,-5.7016,-5.6881,-5.6758,-5.6757,-5.6977,-5.7008,-5.7034,-5.7066,-5.678,0,0,0,0,0,-5.8937,-5.884,-5.8566,-5.8527,-5.8451,-5.8203,-5.8122,-5.7973,-5.7784,-5.7708,-5.751,-5.7324,-5.7177,-5.7085,-5.6934,-5.6865,-5.6792,-5.6853,-5.688,-5.6903,-5.6902,-5.6849,-5.687,-5.6637,-5.6637,-5.6637,0,0,-5.9048,-5.8865,-5.8818,-5.8581,-5.8434,-5.833,-5.8144,-5.804,-5.7957,-5.7688,-5.7564,-5.7414,-5.7186,-5.7091,-5.7038,-5.6968,-5.6952,-5.6914,-5.6935,-5.6919,-5.6859,-5.6882,-5.6901,-5.6643,-5.6642,-5.6641,0,0,-5.9198,-5.9055,-5.9006,-5.8866,-5.8652,-5.8487,-5.8476,-5.8216,-5.8109,-5.7983,-5.7779,-5.7671,-5.7426,-5.7272,-5.7162,-5.7262,-5.7105,-5.722,-5.7354,-5.7306,-5.7324,-5.7338,-5.7367,-5.7381,-5.7221,-5.7222,-5.7222,0,-5.9361,-5.9206,-5.8995,-5.8907,-5.8805,-5.8572,-5.8515,-5.8385,-5.8128,-5.8058,-5.7988,-5.7677,-5.7508,-5.7371,-5.7397,-5.7318,-5.7288,-5.7246,-5.7341,-5.7353,-5.7363,-5.7387,-5.74,-5.7237,-5.7235,-5.7234,-5.7232,0,-5.9414,-5.931,-5.9294,-5.9066,-5.8963,-5.889,-5.8659,-5.8578,-5.8441,-5.8281,-5.8151,-5.7943,-5.7745,-5.7703,-5.7562,-5.7545,-5.7508,-5.7394,-5.7263,-5.7405,-5.7422,-5.743,-5.7258,-5.7253,-5.7248,-5.7245,0,0,-5.9722,-5.9386,-5.9383,-5.9276,-5.9025,-5.8934,-5.8849,-5.8668,-5.8601,-5.8433,-5.8347,-5.8149,-5.8044,-5.7919,-5.7759,-5.7718,-5.7803,-5.7606,-5.7596,-5.7644,-5.7763,-5.7846,-5.7861,-5.7703,-5.7704,-5.7704,-5.778,0,-5.9827,-5.9674,-5.9484,-5.9389,-5.9286,-5.9066,-5.899,-5.8823,-5.8673,-5.8555,-5.8383,-5.8246,-5.812,-5.8043,-5.7994,-5.7805,-5.7822,-5.7797,-5.7607,-5.7604,-5.7665,-5.7871,-5.7957,-5.8038,-5.7786,-5.7787,-5.7788,0,-5.9927,-5.9784,-5.9684,-5.9445,-5.9393,-5.9331,-5.9149,-5.9044,-5.8847,-5.8739,-5.8607,-5.8438,-5.8326,-5.8219,-5.8055,-5.8043,-5.7955,-5.7851,-5.7848,-5.7814,-5.7699,-5.7835,-5.8059,-5.807,-5.7798,-5.7797,-5.7796,0,-6.0155,-5.9936,-5.9847,-5.9763,-5.9483,-5.9443,-5.9322,-5.9123,-5.9026,-5.8865,-5.8798,-5.8622,-5.8523,-5.8386,-5.817,-5.8114,-5.8027,-5.7903,-5.7924,-5.793,-5.7908,-5.7911,-5.8114,-5.7867,-5.7867,-5.7867,-5.7867,0,-6.0288,-6.0233,-5.9947,-5.9891,-5.9821,-5.9601,-5.9534,-5.9391,-5.9217,-5.9122,-5.8919,-5.8831,-5.8558,-5.8434,-5.8265,-5.8151,-5.8109,-5.8011,-5.7964,-5.8024,-5.8036,-5.7955,-5.7941,-5.787,-5.7869,-5.7868,-5.7868,0,-6.0525,-6.0334,-6.0221,-5.997,-5.9906,-5.9864,-5.9642,-5.9575,-5.9418,-5.93,-5.9259,-5.9006,-5.8852,-5.8628,-5.8401,-5.8286,-5.8196,-5.8126,-5.8266,-5.8237,-5.8269,-5.8267,-5.842,-5.8426,-5.8187,-5.8189,-5.8191,0,-6.0619,-6.0573,-6.0322,-6.0251,-6.0141,-6.0026,-5.9931,-5.9711,-5.9618,-5.9394,-5.9351,-5.9185,-5.9038,-5.88,-5.8588,-5.8413,-5.8332,-5.8399,-5.8302,-5.8364,-5.8323,-5.8326,-5.8316,-5.8418,-5.8422,-5.8425,-5.8428,0,-6.0802,-6.0712,-6.0588,-6.0433,-6.0328,-6.0191,-6.0043,-5.9993,-5.9739,-5.9643,-5.9491,-5.938,-5.9156,-5.8988,-5.8786,-5.8647,-5.8491,-5.8462,-5.8456,-5.8512,-5.8592,-5.8542,-5.832,-5.8456,-5.8453,-5.8451,-5.845,-5.8448,-6.0963,-6.0913,-6.0731,-6.0599,-6.0469,-6.0337,-6.0262,-6.0101,-5.9974,-5.9783,-5.9659,-5.9511,-5.9311,-5.9026,-5.8897,-5.877,-5.8704,-5.8698,-5.8694,-5.8694,-5.8713,-5.8623,-5.8732,-5.8731,-5.873,-5.8729,-5.8728,0,-6.113,-6.1005,-6.0889,-6.0695,-6.059,-6.0472,-6.0302,-6.0218,-6.0096,-5.993,-5.9796,-5.9617,-5.9456,-5.9237,-5.9056,-5.8996,-5.892,-5.8955,-5.8952,-5.8921,-5.8784,-5.8805,-5.902,-5.902,-5.902,-5.902,-5.902,-5.902,-6.1205,-6.1112,-6.1001,-6.0839,-6.0709,-6.0574,-6.0487,-6.0361,-6.0228,-6.0043,-5.9914,-5.9778,-5.9586,-5.9392,-5.9235,-5.9173,-5.9112,-5.9169,-5.9084,-5.8958,-5.8931,-5.8906,-5.8923,-5.9159,-5.916,-5.9229,-5.923,-5.9231]},{"header":{"parameterUnit":"m.s-1","parameterCategory":1,"la1":30.2991,"la2":30.254,"lo1":-89.0895,"lo2":-89.0444,"dy":0.0017,"dx":0.0017,"nx":28,"ny":28,"refTime":"2025-07-23T03:00:00:Z","depth":0,"parameterNumber":3,"parameterNumberName":"V-component_of_WINDS"},"data":[0,0,0,0,0,0,0,0,0,0,0,0,0,0,0,0,0,0,0,0,0,0,0,0,0,0,0,0,0,0,0,0,0,0,0,0,0,0,0,0,0,0,0,0,0,0,0,0,0,0,0,0,0,0,0,0,0,0,1.6476,1.647,0,1.5905,1.5899,1.5892,1.5701,1.5704,1.5706,1.5709,1.5117,1.51,1.5082,0,0,0,0,0,0,0,0,0,0,0,0,0,1.7389,1.7373,1.6477,1.6469,1.6462,1.5906,1.5898,1.589,1.5701,1.5704,1.5707,1.571,1.5123,1.5102,1.508,0,0,0,0,0,0,0,0,0,0,0,0,0,1.6923,1.7368,1.6478,1.6301,1.6279,1.5908,1.5898,1.5888,1.57,1.5704,1.5708,1.5711,1.513,1.5104,1.5077,1.4838,0,0,1.4995,1.4983,0,0,0,0,0,0,0,0,1.695,1.689,1.6334,1.6312,1.6287,1.5878,1.6003,1.5536,1.57,1.592,1.5709,1.5713,1.5367,1.5321,1.5205,1.481,1.4785,1.4992,1.4976,1.4964,1.4957,0,0,0,0,0,0,0,1.6982,1.6913,1.625,1.6326,1.6297,1.6245,1.6183,1.5914,1.563,1.5901,1.5886,1.5821,1.5355,1.5232,1.519,1.4776,1.4993,1.4969,1.4952,1.4942,1.4145,1.4141,0,0,0,0,0,0,1.7046,1.6941,1.6268,1.6233,1.6634,1.6226,1.6156,1.6006,1.5632,1.5579,1.5819,1.5815,1.5276,1.5222,1.5169,1.4858,1.4964,1.4939,1.4924,1.415,1.4144,1.4139,0,0,0,0,0,0,1.7066,1.6987,1.6291,1.6582,1.649,1.6207,1.6039,1.5993,1.587,1.557,1.5518,1.5746,1.5277,1.5207,1.492,1.4835,1.4927,1.4902,1.4156,1.4148,1.4142,1.424,0,0,0,0,0,0,1.7093,1.6996,1.6906,1.6582,1.6475,1.6057,1.6034,1.5979,1.5824,1.5814,1.5488,1.5438,1.5274,1.4961,1.4893,1.48,1.4881,1.4162,1.4153,1.4144,1.4243,1.4237,1.4232,0,0,0,0,0,1.7126,1.6957,1.6903,1.6823,1.6358,1.6053,1.5991,1.5809,1.5819,1.5723,1.5529,1.5448,1.4856,1.4934,1.4855,1.4753,1.4167,1.4155,1.4145,1.4246,1.4238,1.4232,0,0,0,0,0,0,1.7279,1.6912,1.6848,1.657,1.6344,1.6021,1.5896,1.5808,1.5573,1.5572,1.5353,1.5281,1.501,1.4851,1.4945,1.4496,1.4506,1.4479,1.461,1.46,1.4595,1.4639,1.4859,0,0,0,0,0,1.728,1.7067,1.6756,1.654,1.643,1.6183,1.6043,1.5921,1.5678,1.5581,1.5366,1.513,1.4889,1.4736,1.4499,1.4219,1.4141,1.4108,1.4103,1.41,1.4079,1.391,1.3891,1.4102,1.4102,1.4103,0,0,1.7281,1.7054,1.6933,1.6565,1.6376,1.6154,1.6104,1.5874,1.5706,1.5545,1.5261,1.5094,1.4815,1.4529,1.4392,1.4389,1.4002,1.4085,1.4085,1.4065,1.3897,1.3877,1.386,1.4095,1.4096,1.4097,0,0,1.7169,1.6978,1.6774,1.6584,1.6298,1.6132,1.6084,1.5771,1.5655,1.5366,1.5238,1.5032,1.4625,1.4429,1.4277,1.408,1.3994,1.4008,1.3979,1.3818,1.3801,1.3785,1.371,1.3687,1.3988,1.3988,1.3988,0,1.7206,1.6871,1.668,1.6454,1.6293,1.6136,1.5924,1.5748,1.5398,1.5288,1.529,1.4769,1.4571,1.4233,1.4185,1.4068,1.4,1.4046,1.382,1.3802,1.3784,1.371,1.3683,1.3992,1.3991,1.3991,1.3991,0,1.6927,1.6696,1.6565,1.6231,1.6054,1.5837,1.5607,1.545,1.5341,1.5175,1.4877,1.4632,1.434,1.425,1.4143,1.3893,1.39,1.3864,1.3869,1.377,1.3697,1.3667,1.3997,1.3995,1.3994,1.3994,0,0,1.6902,1.6459,1.6414,1.6257,1.5925,1.574,1.5511,1.5225,1.5092,1.4853,1.4653,1.4307,1.4268,1.4095,1.3962,1.3821,1.3673,1.3799,1.3789,1.3782,1.3377,1.3406,1.3377,1.3614,1.3608,1.3603,1.3399,0,1.6745,1.6334,1.6151,1.582,1.56,1.5442,1.5241,1.5013,1.4849,1.4634,1.445,1.4207,1.4177,1.407,1.3923,1.3723,1.3589,1.3735,1.342,1.3411,1.3495,1.3339,1.3371,1.3192,1.337,1.3365,1.3361,0,1.6509,1.6269,1.5917,1.5604,1.5504,1.5329,1.5046,1.4845,1.4579,1.4468,1.427,1.4142,1.3888,1.391,1.3555,1.3658,1.3517,1.3398,1.3386,1.335,1.3381,1.3297,1.3131,1.3104,1.3315,1.3319,1.3322,0,1.6522,1.611,1.5844,1.5715,1.5344,1.5222,1.5061,1.4799,1.4636,1.4387,1.4278,1.4004,1.3853,1.3641,1.3439,1.3474,1.31,1.3107,1.2997,1.3002,1.2927,1.2934,1.2735,1.2839,1.2839,1.284,1.284,0,1.6366,1.6156,1.5844,1.5681,1.5437,1.5224,1.4988,1.4814,1.458,1.4376,1.4222,1.4032,1.3778,1.3554,1.3393,1.312,1.3053,1.2953,1.2913,1.2966,1.2979,1.2871,1.2878,1.2832,1.2834,1.2835,1.2836,0,1.6342,1.6125,1.5823,1.5494,1.5406,1.5241,1.4956,1.4788,1.4613,1.4355,1.4282,1.4006,1.3734,1.3511,1.3154,1.3045,1.2759,1.2713,1.285,1.2828,1.273,1.2742,1.2453,1.2402,1.2544,1.2543,1.2542,0,1.6257,1.6091,1.5742,1.5595,1.5436,1.5201,1.5032,1.4812,1.4642,1.4321,1.419,1.3906,1.3668,1.3239,1.3004,1.2727,1.2673,1.259,1.2631,1.2687,1.2667,1.268,1.2659,1.2588,1.2587,1.2587,1.2586,0,1.6128,1.6027,1.5792,1.5516,1.5319,1.5091,1.4858,1.4745,1.4481,1.4297,1.4016,1.3831,1.3464,1.3182,1.2879,1.2707,1.26,1.2575,1.2534,1.2588,1.2672,1.2621,1.2838,1.2583,1.2584,1.2584,1.2584,1.2584,1.6068,1.5911,1.5639,1.5379,1.518,1.4965,1.4789,1.4589,1.4353,1.4038,1.392,1.3632,1.3359,1.2941,1.2767,1.2534,1.2522,1.2465,1.245,1.2439,1.2444,1.2709,1.2478,1.2477,1.2477,1.2477,1.2477,0,1.5929,1.5745,1.5508,1.5186,1.498,1.4897,1.4633,1.4465,1.4213,1.3969,1.3736,1.3409,1.3132,1.2873,1.2581,1.2444,1.2387,1.2375,1.2382,1.2343,1.2473,1.2536,1.2425,1.2425,1.2425,1.2425,1.2425,1.2425,1.5833,1.556,1.5425,1.5049,1.4863,1.458,1.4436,1.4233,1.4036,1.3679,1.3448,1.3281,1.3027,1.2714,1.2454,1.2384,1.2283,1.2283,1.22,1.2327,1.2335,1.2343,1.2401,1.2264,1.2263,1.2089,1.2088,1.2087]}]]